[[{"header":{"parameterUnit":"m.s-1","parameterCategory":1,"la1":30.2991,"la2":30.254,"lo1":-89.0895,"lo2":-89.0444,"dy":0.0017,"dx":0.0017,"nx":28,"ny":28,"refTime":"2023-08-07T21:00:00:Z","depth":0,"parameterNumber":2,"parameterNumberName":"U-component_of_WINDS"},"data":[0,0,0,0,0,0,0,0,0,0,0,0,0,0,0,0,0,0,0,0,0,0,0,0,0,0,0,0,0,0,0,0,0,0,0,0,0,0,0,0,0,0,0,0,0,0,0,0,0,0,0,0,0,0,0,0,0,0,2.335,2.3351,0,2.345,2.3451,2.3452,2.3466,2.3465,2.3464,2.3463,2.3564,2.3567,2.3571,0,0,0,0,0,0,0,0,0,0,0,0,0,2.3166,2.317,2.3349,2.3351,2.3352,2.345,2.3451,2.3453,2.3466,2.3465,2.3463,2.3462,2.3562,2.3567,2.3571,0,0,0,0,0,0,0,0,0,0,0,0,0,2.3254,2.3171,2.3349,2.337,2.3373,2.345,2.3451,2.3453,2.3466,2.3465,2.3463,2.3462,2.3561,2.3566,2.3572,2.3633,0,0,2.3588,2.359,0,0,0,0,0,0,0,0,2.3249,2.3261,2.3366,2.3369,2.3372,2.3444,2.3424,2.3513,2.3466,2.3431,2.3463,2.3461,2.3525,2.3533,2.3555,2.3638,2.3642,2.3588,2.3592,2.3594,2.3595,0,0,0,0,0,0,0,2.3243,2.3257,2.3389,2.3368,2.3371,2.3374,2.3385,2.3441,2.3484,2.3434,2.3435,2.3447,2.3526,2.355,2.3557,2.3644,2.3588,2.3593,2.3596,2.3598,2.3781,2.3782,0,0,0,0,0,0,2.3234,2.3252,2.3386,2.3392,2.3306,2.3378,2.3391,2.3422,2.3484,2.3492,2.3448,2.3447,2.3541,2.3551,2.3561,2.3636,2.3594,2.3599,2.3602,2.3779,2.3781,2.3783,0,0,0,0,0,0,2.323,2.3245,2.3382,2.3322,2.334,2.3383,2.3419,2.3425,2.3449,2.3495,2.3502,2.3464,2.3541,2.3553,2.3615,2.3639,2.3601,2.3606,2.3777,2.378,2.3782,2.3786,0,0,0,0,0,0,2.3224,2.3244,2.3268,2.3323,2.3343,2.3435,2.342,2.3428,2.3458,2.3458,2.3512,2.3519,2.354,2.3607,2.362,2.3646,2.361,2.3775,2.3778,2.3781,2.3784,2.3788,2.3792,0,0,0,0,0,2.3218,2.3265,2.3269,2.3286,2.3375,2.3436,2.3448,2.3472,2.346,2.3484,2.3514,2.3518,2.3635,2.3613,2.3628,2.3656,2.3773,2.3777,2.3781,2.3782,2.3787,2.3792,0,0,0,0,0,0,2.3212,2.3273,2.3278,2.3345,2.3385,2.3438,2.347,2.3477,2.3521,2.3519,2.3546,2.3558,2.3618,2.3644,2.3618,2.3718,2.3703,2.371,2.3699,2.3704,2.3708,2.37,2.3615,0,0,0,0,0,2.3219,2.3265,2.3315,2.3369,2.3389,2.3426,2.3454,2.3469,2.3511,2.3528,2.3562,2.3603,2.3649,2.3678,2.3723,2.3788,2.3799,2.3815,2.3819,2.3822,2.3827,2.3862,2.3869,2.3795,2.3795,2.3795,0,0,2.3233,2.3272,2.3299,2.3369,2.3402,2.3448,2.344,2.3489,2.3523,2.3536,2.3595,2.3622,2.3669,2.3732,2.3761,2.3755,2.385,2.3827,2.3829,2.3832,2.3866,2.3873,2.3879,2.3797,2.3797,2.3796,0,0,2.3281,2.3316,2.3364,2.3397,2.3448,2.3472,2.3483,2.3535,2.3553,2.3614,2.3624,2.3665,2.3744,2.3776,2.3803,2.3864,2.3868,2.3878,2.3898,2.3932,2.3938,2.3943,2.3962,2.3969,2.3883,2.3883,2.3883,0,2.3292,2.3362,2.3388,2.3436,2.3466,2.3481,2.3529,2.356,2.3622,2.3641,2.3634,2.3733,2.3766,2.3835,2.385,2.3872,2.3885,2.3871,2.3935,2.394,2.3946,2.3965,2.3972,2.3884,2.3883,2.3883,2.3883,0,2.3371,2.3419,2.3452,2.3512,2.3546,2.3594,2.3626,2.3657,2.367,2.3694,2.3755,2.3795,2.3848,2.3866,2.3878,2.3937,2.3932,2.3929,2.3914,2.3953,2.3971,2.3979,2.3884,2.3884,2.3884,2.3884,0,0,2.3417,2.3491,2.3502,2.3529,2.3586,2.3623,2.3671,2.3723,2.3748,2.3791,2.3831,2.3898,2.3896,2.3926,2.3943,2.3972,2.4015,2.3966,2.3967,2.3972,2.4081,2.408,2.4089,2.402,2.4021,2.4022,2.4076,0,2.347,2.3557,2.3582,2.3655,2.3699,2.3713,2.3755,2.3794,2.3818,2.3858,2.3885,2.3931,2.3926,2.3944,2.3975,2.4003,2.4037,2.4,2.4055,2.4057,2.4041,2.4099,2.4099,2.4147,2.4084,2.4085,2.4086,0,2.3544,2.3587,2.3664,2.3714,2.3734,2.3771,2.382,2.3859,2.3903,2.3918,2.3952,2.3966,2.4016,2.4,2.4068,2.4043,2.4067,2.4085,2.4087,2.4091,2.4072,2.4102,2.4164,2.417,2.4098,2.4097,2.4096,0,2.3567,2.3645,2.3701,2.3724,2.3784,2.381,2.3836,2.3878,2.3908,2.3951,2.397,2.4018,2.4044,2.408,2.4106,2.4093,2.4172,2.4158,2.4185,2.4184,2.4199,2.4197,2.4263,2.4218,2.4218,2.4218,2.4218,0,2.3622,2.3668,2.3712,2.3746,2.3798,2.3826,2.3876,2.3903,2.3941,2.3979,2.3996,2.4032,2.4065,2.4105,2.4126,2.4178,2.419,2.4203,2.4208,2.4201,2.4199,2.4215,2.4212,2.422,2.4219,2.4219,2.4219,0,2.3656,2.3688,2.3749,2.3801,2.3815,2.3851,2.3895,2.3928,2.3953,2.4002,2.4015,2.4055,2.4103,2.4133,2.4194,2.4208,2.4265,2.427,2.425,2.4252,2.4276,2.4272,2.4353,2.4364,2.4313,2.4314,2.4314,0,2.3688,2.3723,2.3779,2.3807,2.3833,2.3877,2.3907,2.3936,2.3967,2.4019,2.4046,2.4095,2.4136,2.4212,2.4245,2.4292,2.4296,2.4322,2.4303,2.4295,2.4294,2.4291,2.4294,2.4324,2.4324,2.4324,2.4325,0,2.3741,2.3754,2.3797,2.3846,2.3881,2.392,2.3959,2.3981,2.4017,2.405,2.4099,2.4131,2.4193,2.4241,2.4291,2.4317,2.4326,2.433,2.4339,2.433,2.4317,2.4322,2.4256,2.4328,2.4328,2.4327,2.4327,2.4327,2.3773,2.3805,2.3849,2.3896,2.3928,2.3965,2.3998,2.4027,2.4069,2.4122,2.4137,2.4189,2.4231,2.4299,2.4326,2.4366,2.4363,2.4375,2.4378,2.438,2.4379,2.4312,2.4376,2.4375,2.4375,2.4375,2.4375,0,2.3825,2.3854,2.3897,2.3951,2.3988,2.3995,2.4038,2.4068,2.4113,2.4152,2.4192,2.4248,2.4295,2.4332,2.438,2.4405,2.441,2.4417,2.4414,2.4419,2.438,2.4367,2.4411,2.4411,2.4411,2.4411,2.4411,2.4411,2.3856,2.3909,2.3928,2.3998,2.4027,2.4077,2.4101,2.4134,2.4166,2.4228,2.4267,2.4291,2.4329,2.438,2.4423,2.4433,2.4449,2.4454,2.4464,2.4426,2.4422,2.4418,2.4406,2.4458,2.4458,2.45,2.45,2.45]},{"header":{"parameterUnit":"m.s-1","parameterCategory":1,"la1":30.2991,"la2":30.254,"lo1":-89.0895,"lo2":-89.0444,"dy":0.0017,"dx":0.0017,"nx":28,"ny":28,"refTime":"2023-08-07T21:00:00:Z","depth":0,"parameterNumber":3,"parameterNumberName":"V-component_of_WINDS"},"data":[0,0,0,0,0,0,0,0,0,0,0,0,0,0,0,0,0,0,0,0,0,0,0,0,0,0,0,0,0,0,0,0,0,0,0,0,0,0,0,0,0,0,0,0,0,0,0,0,0,0,0,0,0,0,0,0,0,0,1.7421,1.7423,0,1.7559,1.756,1.7562,1.7589,1.7587,1.7586,1.7585,1.7725,1.773,1.7734,0,0,0,0,0,0,0,0,0,0,0,0,0,1.7181,1.7185,1.7421,1.7423,1.7425,1.7558,1.756,1.7562,1.7589,1.7587,1.7586,1.7585,1.7723,1.7729,1.7735,0,0,0,0,0,0,0,0,0,0,0,0,0,1.7298,1.7186,1.7421,1.7454,1.7458,1.7558,1.756,1.7563,1.7589,1.7587,1.7586,1.7584,1.7722,1.7728,1.7735,1.7812,0,0,1.7757,1.776,0,0,0,0,0,0,0,0,1.7291,1.7307,1.7447,1.7452,1.7457,1.7555,1.7527,1.7646,1.7589,1.7539,1.7585,1.7583,1.767,1.7681,1.771,1.7818,1.7824,1.7758,1.7762,1.7765,1.7767,0,0,0,0,0,0,0,1.7283,1.7301,1.7476,1.7449,1.7455,1.7462,1.7477,1.755,1.7612,1.7544,1.7546,1.7562,1.7672,1.7703,1.7714,1.7826,1.7757,1.7764,1.7768,1.7771,1.8004,1.8006,0,0,0,0,0,0,1.7269,1.7294,1.7471,1.748,1.7369,1.7467,1.7484,1.7525,1.7611,1.7623,1.7563,1.7563,1.7692,1.7705,1.7719,1.7814,1.7765,1.7772,1.7776,1.8002,1.8004,1.8006,0,0,0,0,0,0,1.7264,1.7285,1.7466,1.7388,1.7411,1.7473,1.7519,1.7529,1.756,1.7626,1.7637,1.7584,1.7691,1.7709,1.7788,1.7819,1.7775,1.7781,1.8,1.8003,1.8005,1.8005,0,0,0,0,0,0,1.7257,1.7283,1.7313,1.7388,1.7415,1.7534,1.7521,1.7532,1.7572,1.7573,1.7648,1.7659,1.7691,1.7778,1.7795,1.7828,1.7787,1.7997,1.8001,1.8004,1.8003,1.8008,1.8012,0,0,0,0,0,1.7248,1.7307,1.7314,1.7335,1.7454,1.7535,1.7551,1.7587,1.7575,1.7605,1.7647,1.7657,1.7813,1.7786,1.7806,1.7841,1.7995,1.8,1.8004,1.8001,1.8007,1.8012,0,0,0,0,0,0,1.7233,1.7317,1.7326,1.7411,1.7466,1.754,1.7579,1.7592,1.7651,1.7649,1.7691,1.7708,1.7785,1.7821,1.7789,1.792,1.7903,1.7912,1.7894,1.79,1.7905,1.7895,1.7793,0,0,0,0,0,1.724,1.7299,1.7369,1.7437,1.7464,1.7517,1.7554,1.7577,1.7635,1.7658,1.7706,1.7762,1.7824,1.7864,1.7924,1.8008,1.8025,1.8042,1.8046,1.805,1.8057,1.8104,1.8113,1.8021,1.8021,1.8021,0,0,1.7253,1.7307,1.7342,1.7435,1.7481,1.7541,1.7536,1.76,1.7645,1.7668,1.7747,1.7784,1.7849,1.7931,1.7969,1.7963,1.8086,1.8055,1.8058,1.8063,1.811,1.8119,1.8126,1.8024,1.8023,1.8023,0,0,1.731,1.7356,1.7418,1.7464,1.7532,1.7567,1.7582,1.7654,1.768,1.7759,1.7777,1.7831,1.7937,1.7983,1.802,1.8093,1.8105,1.8112,1.8136,1.8182,1.8189,1.8196,1.8223,1.8232,1.8119,1.8119,1.8119,0,1.7319,1.7411,1.7448,1.7512,1.7553,1.7576,1.7639,1.7681,1.7766,1.7793,1.7785,1.7918,1.7963,1.8056,1.8074,1.8103,1.8122,1.8104,1.8185,1.8192,1.8199,1.8225,1.8235,1.8119,1.8119,1.8119,1.8119,0,1.7419,1.7482,1.7524,1.7606,1.7651,1.7714,1.776,1.7801,1.782,1.7856,1.7937,1.7992,1.8064,1.8088,1.8107,1.8184,1.8178,1.8177,1.8162,1.8208,1.8233,1.8244,1.812,1.812,1.8119,1.8119,0,0,1.747,1.7572,1.7586,1.7624,1.7701,1.7751,1.7815,1.7886,1.7921,1.7978,1.8033,1.8121,1.8121,1.8163,1.8187,1.8227,1.8283,1.8221,1.8223,1.8231,1.8372,1.8373,1.8385,1.829,1.8292,1.8294,1.8367,0,1.7537,1.7652,1.7687,1.7784,1.7843,1.7866,1.7921,1.7975,1.8009,1.8064,1.8102,1.8165,1.8159,1.8185,1.8225,1.8267,1.8312,1.8262,1.8342,1.8344,1.8326,1.8398,1.8399,1.8466,1.8377,1.8379,1.838,0,1.763,1.769,1.7792,1.7862,1.7888,1.7938,1.8006,1.8058,1.8119,1.8142,1.8189,1.8209,1.8277,1.8257,1.835,1.8316,1.835,1.8376,1.8379,1.8389,1.8366,1.841,1.8488,1.8498,1.8396,1.8395,1.8394,0,1.7658,1.7764,1.7839,1.787,1.7954,1.7988,1.8025,1.8084,1.8124,1.8184,1.821,1.8276,1.8313,1.8363,1.8401,1.8383,1.8492,1.8475,1.8513,1.8512,1.8535,1.8534,1.8621,1.8556,1.8556,1.8555,1.8555,0,1.7729,1.7791,1.7853,1.7899,1.797,1.8009,1.8077,1.8115,1.8167,1.8221,1.8244,1.8294,1.8341,1.8397,1.8427,1.8501,1.8517,1.8537,1.8544,1.8536,1.8533,1.8559,1.8556,1.8558,1.8557,1.8557,1.8556,0,1.7773,1.7817,1.7901,1.7973,1.7993,1.8041,1.8103,1.8149,1.8184,1.8252,1.827,1.8326,1.8393,1.8436,1.8521,1.8541,1.8622,1.8627,1.8602,1.8606,1.8641,1.8638,1.8749,1.8766,1.8689,1.8689,1.869,0,1.7816,1.7865,1.7942,1.798,1.8017,1.8078,1.8119,1.816,1.8202,1.8275,1.8312,1.8381,1.8439,1.8545,1.8593,1.8659,1.8667,1.8701,1.8677,1.8667,1.8669,1.8666,1.8671,1.8705,1.8706,1.8707,1.8707,0,1.7888,1.7908,1.7967,1.8034,1.8084,1.8138,1.8193,1.8222,1.8272,1.8319,1.8388,1.8433,1.852,1.8589,1.8659,1.8696,1.871,1.8714,1.8727,1.8719,1.8702,1.8713,1.8614,1.8712,1.8711,1.8711,1.8711,1.8711,1.7934,1.7978,1.804,1.8106,1.8151,1.8202,1.8248,1.829,1.8348,1.8423,1.8443,1.8516,1.8576,1.8671,1.871,1.8767,1.8763,1.878,1.8785,1.8789,1.879,1.8692,1.878,1.878,1.878,1.878,1.878,0,1.8008,1.8049,1.8109,1.8185,1.8236,1.8245,1.8306,1.8349,1.8413,1.8467,1.8523,1.8603,1.867,1.8723,1.8791,1.8827,1.8835,1.8843,1.8842,1.885,1.879,1.8773,1.8836,1.8836,1.8836,1.8836,1.8836,1.8836,1.8053,1.8129,1.8155,1.8254,1.8294,1.8366,1.84,1.8447,1.8491,1.8579,1.8635,1.8669,1.8723,1.8795,1.8857,1.8871,1.8895,1.8902,1.8918,1.8861,1.8854,1.8849,1.8833,1.8907,1.8907,1.8974,1.8974,1.8975]}]]